This is the latest recevied weather packets stored in our database for station/object KB3FCJ-2. If no packets are shown the sender has not sent any weather packets the latest 10 day(s).
| Time | Temp. | Humidity | Pressure | Rain* | Wind** | Luminosity | Snow |
|---|---|---|---|---|---|---|---|
| 1777840206 | 14.44° C | 36% | 944.6 hPa | 0 mm | - | - | - |
| 1777839605 | 15° C | 38% | 944.6 hPa | 0 mm | - | - | - |
| 1777839006 | 14.44° C | 40% | 944.6 hPa | 0 mm | - | - | - |
| 1777838161 | 14.44° C | 39% | 944.6 hPa | 0 mm | - | - | - |
| 1777837561 | 13.89° C | 39% | 944.6 hPa | 0 mm | - | - | - |
| 1777836961 | 13.89° C | 40% | 944.6 hPa | 0 mm | - | - | - |
| 1777836361 | 13.89° C | 40% | 944.6 hPa | 0 mm | - | - | - |
| 1777835514 | 13.33° C | 42% | 944.6 hPa | 0 mm | - | - | - |
| 1777834914 | 13.33° C | 40% | 944.6 hPa | 0 mm | - | - | - |
| 1777834314 | 13.89° C | 42% | 944.6 hPa | 0 mm | - | - | - |
| 1777833714 | 12.78° C | 41% | 944.6 hPa | 0 mm | - | - | - |
| 1777832869 | 12.78° C | 41% | 944.6 hPa | 0 mm | - | - | - |
| 1777832269 | 12.78° C | 42% | 944.6 hPa | 0 mm | - | - | - |
| 1777831669 | 12.22° C | 41% | 944.6 hPa | 0 mm | - | - | - |
| 1777831069 | 12.78° C | 42% | 944.6 hPa | 0 mm | - | - | - |
| 1777830244 | 11.67° C | 42% | 944.6 hPa | 0 mm | - | - | - |
| 1777829644 | 12.22° C | 42% | 944.6 hPa | 0 mm | - | - | - |
| 1777829044 | 12.22° C | 41% | 944.6 hPa | 0 mm | - | - | - |
| 1777828444 | 12.22° C | 42% | 944.6 hPa | 0 mm | - | - | - |
| 1777827601 | 11.67° C | 42% | 944.6 hPa | 0 mm | - | - | - |
| 1777827001 | 11.67° C | 45% | 944.6 hPa | 0 mm | - | - | - |
| 1777826401 | 11.11° C | 43% | 944.6 hPa | 0 mm | - | - | - |
| 1777825801 | 11.11° C | 46% | 944.6 hPa | 0 mm | - | - | - |
| 1777824956 | 11.11° C | 48% | 944.6 hPa | 0 mm | - | - | - |
| 1777824359 | 10.56° C | 48% | 944.6 hPa | 0 mm | - | - | - |
* Rain latest hour (hover to see other rain measurements)
** Current wind speed in m/s (hover to see current wind gust speed)